Location: Complexul Astronomic Baia Mare
(47.6577°N, 23.5639°E)
Time: 06:50:11
(UTC+03:00)

ISS - Pass Details

Date: 18 May 2017
Orbit: 402 x 408 km, 51.6° (Epoch: 29 May)

Event Time Altitude Azimuth Distance (km) Brightness Sun altitude
Exits shadow 01:50:40 21° 77° (ENE) 976 -1.7 -22.5°
Drops below altitude 10° 01:51:55 10° 71° (ENE) 1,467 -0.7 -22.5°
Sets 01:54:01 0° 67° (ENE) 2,328 0.4 -22.4°
